Delta, CO

1:47 PM MDT on April 23, 2018 (GMT -0600)
Delta

Weather History for KAJZ - October, 2014

Change the Weather History Date:

Monday, October 6, 2014

  Actual Average (KMTJ) Record (KMTJ)
Temperature  
Mean Temperature 60 °F -  
Max Temperature 78 °F 69 °F 81 °F (1997)
Min Temperature 41 °F 38 °F 28 °F (1998)
Degree Days  
Heating Degree Days 6    
Growing Degree Days 10 (Base 50)    
Moisture  
Dew Point 37 °F    
Average Humidity 52    
Maximum Humidity 82    
Minimum Humidity 17    
Precipitation  
Precipitation 0.00 in - - ()
Sea Level Pressure  
Sea Level Pressure 30.16 in    
Wind  
Wind Speed 5 mph (ENE)    
Max Wind Speed 14 mph    
Max Gust Speed 20 mph    
Visibility 9 miles    
Events Rain    
Averages and records for this station are not official NWS values.
T = Trace of Precipitation, MM = Missing Value Source: NWS Daily Summary

Daily Weather History Graph

Daily Weather History Graph

Search for Another Location

Airport or City:

Astronomy

Oct. 06, 2014 Rise Set
Actual Time 7:12 AM MDT 6:47 PM MDT
Civil Twilight 6:46 AM MDT 7:13 PM MDT
Nautical Twilight 6:15 AM MDT 7:44 PM MDT
Astronomical Twilight 5:44 AM MDT 8:15 PM MDT
Moon 5:45 PM MDT (10/6) 5:04 AM MDT (10/6)
Length of Visible Light 12h 27m
Length of Day
11h 34m
Waxing Gibbous, 96% of the Moon is Illuminated
Oct 6
Waxing Gibbous
Oct 8
Full
Oct 15
Last Quarter
Oct 23
New
Oct 30
First Quarter

Hourly Weather History & Observations

Time (MDT) Temp. Windchill Dew Point Humidity Pressure Visibility Wind Dir Wind Speed Gust Speed Precip Events Conditions
12:15 AM 50.2 °F - 39.4 °F 66% 30.19 in 10.0 mi NE 5.8 mph - N/A   Clear
12:35 AM 49.5 °F - 39.0 °F 67% 30.19 in 10.0 mi ENE 4.6 mph - N/A   Clear
12:55 AM 48.7 °F - 38.8 °F 69% 30.19 in 10.0 mi ENE 3.5 mph - N/A   Clear
1:15 AM 49.3 °F - 38.8 °F 67% 30.19 in 10.0 mi East 4.6 mph - N/A   Clear
1:35 AM 47.3 °F - 39.2 °F 73% 30.18 in 10.0 mi NNE 3.5 mph - N/A   Clear
1:55 AM 46.0 °F 44.8 °F 39.0 °F 76% 30.19 in 10.0 mi East 3.5 mph - N/A   Clear
2:15 AM 47.5 °F - 38.5 °F 71% 30.19 in 10.0 mi ENE 3.5 mph - N/A   Clear
2:35 AM 46.0 °F 43.9 °F 38.3 °F 74% 30.19 in 10.0 mi NE 4.6 mph - N/A   Clear
2:55 AM 46.8 °F - 38.5 °F 73% 30.19 in 10.0 mi ENE 6.9 mph - N/A   Clear
3:15 AM 46.8 °F - 38.3 °F 72% 30.19 in 10.0 mi East 5.8 mph - N/A   Clear
3:35 AM 45.0 °F 41.8 °F 38.8 °F 79% 30.18 in 10.0 mi NNE 5.8 mph - N/A   Clear
3:55 AM 47.1 °F - 38.3 °F 71% 30.19 in 10.0 mi NE 3.5 mph - N/A   Clear
4:15 AM 44.8 °F 42.4 °F 37.9 °F 77% 30.19 in 10.0 mi NE 4.6 mph - N/A   Clear
4:35 AM 44.4 °F 40.5 °F 38.3 °F 79% 30.18 in 10.0 mi ENE 6.9 mph - N/A   Clear
4:55 AM 46.2 °F 44.1 °F 37.6 °F 72% 30.19 in 10.0 mi East 4.6 mph - N/A   Clear
5:15 AM 45.9 °F 42.9 °F 37.4 °F 72% 30.19 in 10.0 mi ENE 5.8 mph - N/A   Clear
5:35 AM 45.1 °F 42.0 °F 37.4 °F 74% 30.20 in 10.0 mi ENE 5.8 mph - N/A   Clear
5:55 AM 44.6 °F 40.7 °F 37.0 °F 75% 30.19 in 10.0 mi ENE 6.9 mph - N/A   Clear
6:15 AM 44.6 °F 42.2 °F 37.0 °F 75% 30.20 in 10.0 mi ENE 4.6 mph - N/A   Clear
6:35 AM 44.6 °F 42.2 °F 37.4 °F 76% 30.20 in 10.0 mi ENE 4.6 mph - N/A   Clear
6:55 AM 42.8 °F - 36.7 °F 79% 30.21 in 10.0 mi Calm Calm - N/A   Clear
7:15 AM 41.7 °F - 36.7 °F 82% 30.21 in 10.0 mi Calm Calm - N/A   Clear
7:35 AM 41.9 °F 38.2 °F 36.7 °F 82% 30.21 in 10.0 mi NE 5.8 mph - N/A   Clear
7:55 AM 44.8 °F 41.6 °F 37.8 °F 76% 30.21 in 10.0 mi NE 5.8 mph - N/A   Clear
8:15 AM 47.7 °F - 37.4 °F 68% 30.22 in 10.0 mi ENE 6.9 mph - N/A   Clear
8:35 AM 48.7 °F - 37.9 °F 66% 30.23 in 10.0 mi ENE 5.8 mph - N/A   Clear
8:55 AM 50.4 °F - 38.5 °F 64% 30.23 in 10.0 mi East 5.8 mph - N/A   Clear
9:15 AM 52.9 °F - 37.8 °F 56% 30.23 in 10.0 mi East 3.5 mph - N/A   Clear
9:35 AM 52.3 °F - 40.1 °F 63% 30.24 in 10.0 mi Calm Calm - N/A   Clear
9:55 AM 53.2 °F - 39.7 °F 60% 30.24 in 10.0 mi Calm Calm - N/A   Clear
10:15 AM 55.2 °F - 39.2 °F 55% 30.23 in 10.0 mi Calm Calm - N/A   Clear
10:35 AM 56.8 °F - 38.7 °F 51% 30.23 in 10.0 mi Calm Calm - N/A   Clear
10:55 AM 59.4 °F - 38.5 °F 46% 30.23 in 10.0 mi Calm Calm - N/A   Clear
11:15 AM 60.8 °F - 37.2 °F 42% 30.22 in 10.0 mi Calm Calm - N/A   Clear
11:35 AM 63.1 °F - 37.2 °F 38% 30.21 in 10.0 mi Calm Calm - N/A   Clear
12:35 PM 67.5 °F - 35.6 °F 31% 30.18 in 10.0 mi Calm Calm - N/A   Clear
12:55 PM 68.7 °F - 35.8 °F 30% 30.17 in 7.0 mi Calm Calm - N/A   Clear
1:15 PM 70.0 °F - 36.5 °F 29% 30.15 in 10.0 mi East 4.6 mph - N/A   Clear
1:35 PM 70.5 °F - 35.6 °F 28% 30.14 in 10.0 mi East 3.5 mph - N/A   Clear
1:55 PM 71.6 °F - 36.0 °F 27% 30.13 in 7.0 mi Calm Calm - N/A   Clear
2:15 PM 72.3 °F - 36.3 °F 27% 30.12 in 10.0 mi Calm Calm - N/A   Clear
2:35 PM 73.2 °F - 37.0 °F 27% 30.11 in 10.0 mi Calm Calm - N/A   Clear
2:55 PM 74.3 °F - 38.1 °F 27% 30.11 in 7.0 mi South 6.9 mph - N/A   Clear
3:15 PM 75.0 °F - 37.9 °F 26% 30.09 in 7.0 mi SE 8.1 mph - N/A   Clear
3:35 PM 77.7 °F - 33.1 °F 20% 30.08 in 7.0 mi SE 4.6 mph 18.4 mph N/A   Clear
3:55 PM 77.9 °F - 33.3 °F 20% 30.08 in 7.0 mi SW 6.9 mph - N/A   Clear
4:15 PM 77.7 °F - 32.0 °F 19% 30.08 in 7.0 mi WSW 8.1 mph - N/A   Clear
4:35 PM 78.8 °F - 30.9 °F 17% 30.08 in 7.0 mi West 13.8 mph - N/A   Clear
4:55 PM 78.4 °F - 30.0 °F 17% 30.07 in 5.0 mi WSW 11.5 mph - N/A   Haze
5:15 PM 77.2 °F - 29.8 °F 18% 30.08 in 10.0 mi West 13.8 mph 19.6 mph N/A   Clear
5:35 PM 75.2 °F - 29.1 °F 18% 30.08 in 7.0 mi WSW 11.5 mph - N/A   Clear
5:55 PM 73.4 °F - 31.1 °F 21% 30.08 in 7.0 mi SW 11.5 mph - N/A   Clear
6:15 PM 71.1 °F - 32.4 °F 24% 30.08 in 7.0 mi SW 10.4 mph - N/A   Clear
6:35 PM 69.8 °F - 32.0 °F 25% 30.08 in 7.0 mi SW 11.5 mph - N/A   Clear
6:55 PM 68.4 °F - 31.5 °F 25% 30.08 in 7.0 mi SW 10.4 mph - N/A   Clear
7:15 PM 65.1 °F - 34.3 °F 32% 30.09 in 10.0 mi SSW 8.1 mph - N/A   Clear
7:35 PM 65.3 °F - 34.3 °F 32% 30.10 in 7.0 mi Calm Calm - N/A   Clear
7:55 PM 64.6 °F - 34.2 °F 32% 30.11 in 7.0 mi Calm Calm - N/A   Clear
8:15 PM 63.3 °F - 35.4 °F 35% 30.12 in 7.0 mi NE 5.8 mph - N/A   Clear
8:35 PM 63.1 °F - 35.4 °F 36% 30.13 in 7.0 mi Calm Calm - N/A   Clear
8:55 PM 61.0 °F - 37.0 °F 41% 30.13 in 7.0 mi Calm Calm - N/A   Clear
9:15 PM 57.9 °F - 40.5 °F 52% 30.14 in 7.0 mi Calm Calm - N/A   Clear
9:35 PM 59.9 °F - 38.8 °F 46% 30.15 in 7.0 mi Calm Calm - N/A   Clear
9:55 PM 54.7 °F - 40.3 °F 58% 30.15 in 7.0 mi ESE 5.8 mph - N/A   Clear
10:15 PM 52.7 °F - 40.1 °F 62% 30.16 in 10.0 mi ENE 5.8 mph - N/A Rain Light Rain
10:35 PM 52.9 °F - 38.8 °F 59% 30.16 in 10.0 mi East 3.5 mph - N/A Rain Light Rain
10:55 PM 52.9 °F - 39.2 °F 60% 30.16 in 10.0 mi NE 6.9 mph - N/A Rain Light Rain
11:15 PM 54.1 °F - 39.0 °F 57% 30.17 in 10.0 mi ENE 6.9 mph - N/A Rain Light Rain
11:35 PM 53.6 °F - 38.7 °F 57% 30.17 in 7.0 mi NE 4.6 mph - N/A Rain Light Rain
11:55 PM 51.4 °F - 38.3 °F 61% 30.17 in 10.0 mi ENE 5.8 mph - N/A   Clear